map of WGA home
WGA - Airport
Location
City:  Wagga Wagga, New South Wales, Australia
ICAO:YSWG
IATA:WGA

Details
Type:Airport (Aerodrome, Airfield)
Latitude:3509'55"S (-35.165277)
Longitude:14727'59"E (147.466389)
Datum:WGS 1984
Elevation:724 ft (221 m)
Variation:11.70E (WMM2015v2 magnetic declination)
0.01 annual change
Runways:2
Longest:5801 × 148 ft (1768 × 45 m), paved

Time
Time Zone:UTC+10 (DST+11)
Local Time:

Weather
METAR:YSWG 041400Z AUTO 07016KT 9999 // SCT099 29/15 Q1011

Related Locations
Nearby:
Farthest:FLW: 12125 mi / 19513 km
Flores Island [Santa Cruz], 20, PT

Find:

   beyond  
but within

Other Information
Maps:
NOTAMs:
Links:
Sources:

  
  • flag of Australia
  • flag of New South Wales
  

Sectional Chart

Flight Planning
at skyvector.com

Satellite Image

Google Maps Satellite view

 

Copyright © 2004-2019 Karl L. Swartz. All rights reserved.
The Great Circle Mapper name and logo are trademarks of the Great Circle Mapper.
All other trademarks mentioned herein belong to their respective owners.
Please see credits for attibutions and further copyright information.

  Follow gcmap on Facebook Follow gcmap on Twitter GCmap on LinkedIn

hCard Microformat

Geo Microformat